Time,TemperatureF,DewpointF,PressureIn,WindDirection,WindDirectionDegrees,WindSpeedMPH,WindSpeedGustMPH,Humidity,HourlyPrecipIn,Conditions,Clouds,dailyrainin,SolarRadiationWatts/m^2,SoftwareType,DateUTC
2013-07-24 00:00:00,71.9,68.2,29.73,East,94,0.0,3.0,88,0.00,,BKN009,0.00,0.00,VWS V14.01,2013-07-24 05:00:00,
2013-07-24 00:02:00,71.9,68.5,29.73,East,94,0.0,0.0,89,0.00,,CLR,0.00,0.00,VWS V14.01,2013-07-24 05:02:00,
2013-07-24 00:05:00,71.9,68.5,29.73,East,94,1.0,2.0,89,0.00,,BKN009,0.00,0.00,VWS V14.01,2013-07-24 05:05:00,
2013-07-24 00:07:00,71.9,68.5,29.73,ESE,105,0.0,3.0,89,0.00,,CLR,0.00,0.00,VWS V14.01,2013-07-24 05:07:00,
2013-07-24 00:10:00,72.0,68.3,29.73,East,95,2.0,3.0,88,0.00,,BKN009,0.00,0.00,VWS V14.01,2013-07-24 05:10:00,
2013-07-24 00:12:00,71.9,68.2,29.73,ESE,111,0.0,3.0,88,0.00,,CLR,0.00,0.00,VWS V14.01,2013-07-24 05:12:00,
2013-07-24 00:15:00,72.0,68.6,29.73,ESE,111,0.0,3.0,89,0.00,,BKN009,0.00,0.00,VWS V14.01,2013-07-24 05:15:00,
2013-07-24 00:17:00,72.0,68.6,29.73,ESE,111,0.0,1.0,89,0.00,,CLR,0.00,0.00,VWS V14.01,2013-07-24 05:17:00,
2013-07-24 00:20:00,72.0,68.6,29.73,ESE,111,0.0,1.0,89,0.00,,BKN009,0.00,0.00,VWS V14.01,2013-07-24 05:20:00,
2013-07-24 00:22:00,72.0,68.6,29.73,ESE,111,0.0,1.0,89,0.00,,CLR,0.00,0.00,VWS V14.01,2013-07-24 05:22:00,
2013-07-24 00:25:00,72.0,68.6,29.73,ESE,111,0.0,1.0,89,0.00,,BKN009,0.00,0.00,VWS V14.01,2013-07-24 05:25:00,
2013-07-24 00:27:00,71.9,68.5,29.73,ESE,111,0.0,0.0,89,0.00,,CLR,0.00,0.00,VWS V14.01,2013-07-24 05:27:00,
2013-07-24 00:30:00,71.9,68.5,29.73,East,96,1.0,2.0,89,0.00,,BKN009,0.00,0.00,VWS V14.01,2013-07-24 05:30:00,
2013-07-24 00:32:00,72.0,68.6,29.73,East,96,0.0,1.0,89,0.00,,CLR,0.00,0.00,VWS V14.01,2013-07-24 05:32:00,
2013-07-24 00:35:00,71.9,68.5,29.73,East,96,0.0,1.0,89,0.00,,BKN009,0.00,0.00,VWS V14.01,2013-07-24 05:35:00,
2013-07-24 00:37:00,71.9,68.5,29.73,East,96,0.0,0.0,89,0.00,,CLR,0.00,0.00,VWS V14.01,2013-07-24 05:37:00,
2013-07-24 00:40:00,71.9,68.5,29.73,East,96,0.0,0.0,89,0.00,,BKN009,0.00,0.00,VWS V14.01,2013-07-24 05:40:00,
2013-07-24 00:43:00,71.9,68.5,29.73,East,96,0.0,0.0,89,0.00,,CLR,0.00,0.00,VWS V14.01,2013-07-24 05:43:00,
2013-07-24 00:45:00,71.9,68.5,29.75,East,96,0.0,0.0,89,0.00,,BKN009,0.00,0.00,VWS V14.01,2013-07-24 05:45:00,
2013-07-24 00:48:00,71.9,68.5,29.75,East,96,0.0,0.0,89,0.00,,CLR,0.00,0.00,VWS V14.01,2013-07-24 05:48:00,
2013-07-24 00:50:00,71.9,68.5,29.75,East,96,0.0,0.0,89,0.00,,BKN009,0.00,0.00,VWS V14.01,2013-07-24 05:50:00,
2013-07-24 00:53:00,71.9,68.5,29.75,East,96,0.0,0.0,89,0.00,,CLR,0.00,0.00,VWS V14.01,2013-07-24 05:53:00,
2013-07-24 00:55:00,71.9,68.5,29.75,East,96,0.0,0.0,89,0.00,,BKN009,0.00,0.00,VWS V14.01,2013-07-24 05:55:00,
2013-07-24 00:58:00,71.9,68.5,29.75,East,96,0.0,0.0,89,0.00,,CLR,0.00,0.00,VWS V14.01,2013-07-24 05:58:00,
2013-07-24 01:00:00,71.9,68.5,29.76,East,96,0.0,0.0,89,0.00,,BKN009,0.00,0.00,VWS V14.01,2013-07-24 06:00:00,
2013-07-24 01:03:00,71.8,68.4,29.76,East,96,0.0,0.0,89,0.00,,CLR,0.00,0.00,VWS V14.01,2013-07-24 06:03:00,
2013-07-24 01:05:00,71.8,68.4,29.76,East,96,0.0,0.0,89,0.00,,BKN009,0.00,0.00,VWS V14.01,2013-07-24 06:05:00,
2013-07-24 01:08:00,71.8,68.4,29.76,East,96,0.0,0.0,89,0.00,,CLR,0.00,0.00,VWS V14.01,2013-07-24 06:08:00,
2013-07-24 01:10:00,71.8,68.4,29.76,East,96,0.0,0.0,89,0.00,,BKN009,0.00,0.00,VWS V14.01,2013-07-24 06:10:00,
2013-07-24 01:13:00,71.8,68.4,29.76,East,96,0.0,0.0,89,0.00,,CLR,0.00,0.00,VWS V14.01,2013-07-24 06:13:00,
2013-07-24 01:15:00,71.8,68.4,29.76,East,96,0.0,0.0,89,0.00,,BKN009,0.00,0.00,VWS V14.01,2013-07-24 06:15:00,
2013-07-24 01:18:00,71.8,68.7,29.76,East,98,0.0,2.0,90,0.00,,CLR,0.00,0.00,VWS V14.01,2013-07-24 06:18:00,
2013-07-24 01:20:00,71.8,68.7,29.76,East,98,0.0,2.0,90,0.00,,BKN009,0.00,0.00,VWS V14.01,2013-07-24 06:20:00,
2013-07-24 01:23:00,71.7,68.6,29.76,East,98,0.0,0.0,90,0.00,,CLR,0.00,0.00,VWS V14.01,2013-07-24 06:23:00,
2013-07-24 01:25:00,71.8,68.7,29.76,East,98,0.0,0.0,90,0.00,,BKN009,0.00,0.00,VWS V14.01,2013-07-24 06:25:00,
2013-07-24 01:28:00,71.8,68.7,29.76,East,98,0.0,0.0,90,0.00,,CLR,0.00,0.00,VWS V14.01,2013-07-24 06:28:00,
2013-07-24 01:30:00,71.8,68.7,29.75,East,98,0.0,1.0,90,0.00,,BKN009,0.00,0.00,VWS V14.01,2013-07-24 06:30:00,
2013-07-24 01:33:00,71.8,68.7,29.75,East,98,0.0,1.0,90,0.00,,CLR,0.00,0.00,VWS V14.01,2013-07-24 06:33:00,
2013-07-24 01:35:00,71.8,68.7,29.75,East,98,0.0,1.0,90,0.00,,BKN009,0.00,0.00,VWS V14.01,2013-07-24 06:35:00,
2013-07-24 01:38:00,71.8,68.7,29.75,East,98,0.0,0.0,90,0.00,,CLR,0.00,0.00,VWS V14.01,2013-07-24 06:38:00,
2013-07-24 01:40:00,71.8,69.0,29.75,East,98,0.0,0.0,91,0.00,,BKN009,0.00,0.00,VWS V14.01,2013-07-24 06:40:00,
2013-07-24 01:43:00,71.8,69.0,29.75,East,98,0.0,0.0,91,0.00,,CLR,0.00,0.00,VWS V14.01,2013-07-24 06:43:00,
2013-07-24 01:45:00,71.8,69.0,29.75,East,98,0.0,0.0,91,0.00,,BKN009,0.00,0.00,VWS V14.01,2013-07-24 06:45:00,
2013-07-24 01:48:00,71.8,69.0,29.75,East,98,0.0,0.0,91,0.00,,CLR,0.00,0.00,VWS V14.01,2013-07-24 06:48:00,
2013-07-24 01:50:00,71.8,69.0,29.75,East,98,0.0,0.0,91,0.00,,BKN009,0.00,0.00,VWS V14.01,2013-07-24 06:50:00,
2013-07-24 01:53:00,71.8,69.0,29.75,East,98,0.0,1.0,91,0.00,,CLR,0.00,0.00,VWS V14.01,2013-07-24 06:53:00,
2013-07-24 01:55:00,71.8,69.0,29.75,East,98,0.0,2.0,91,0.00,,BKN009,0.00,0.00,VWS V14.01,2013-07-24 06:55:00,
2013-07-24 01:59:00,71.8,69.0,29.75,East,98,0.0,1.0,91,0.00,,CLR,0.00,0.00,VWS V14.01,2013-07-24 06:59:00,
2013-07-24 02:00:00,71.8,69.0,29.75,East,98,0.0,1.0,91,0.00,,BKN009,0.00,0.00,VWS V14.01,2013-07-24 07:00:00,
2013-07-24 02:04:00,71.7,68.9,29.75,East,98,0.0,0.0,91,0.00,,CLR,0.00,0.00,VWS V14.01,2013-07-24 07:04:00,
2013-07-24 02:05:00,71.7,69.3,29.75,East,98,0.0,0.0,92,0.00,,BKN009,0.00,0.00,VWS V14.01,2013-07-24 07:05:00,
2013-07-24 02:09:00,71.7,69.3,29.75,West,270,2.0,3.0,92,0.00,,CLR,0.00,0.00,VWS V14.01,2013-07-24 07:09:00,
2013-07-24 02:10:00,71.6,69.2,29.75,SW,221,2.0,3.0,92,0.00,,BKN009,0.00,0.00,VWS V14.01,2013-07-24 07:10:00,
2013-07-24 02:14:00,71.6,69.2,29.75,SW,235,0.0,8.0,92,0.00,,CLR,0.00,0.00,VWS V14.01,2013-07-24 07:14:00,
2013-07-24 02:15:00,71.6,69.5,29.76,SW,225,1.0,8.0,93,0.00,,BKN009,0.00,0.00,VWS V14.01,2013-07-24 07:15:00,
2013-07-24 02:19:00,71.6,69.5,29.76,SW,232,0.0,3.0,93,0.00,,CLR,0.00,0.00,VWS V14.01,2013-07-24 07:19:00,
2013-07-24 02:20:00,71.6,69.5,29.76,NW,311,0.0,4.0,93,0.00,,BKN009,0.00,0.00,VWS V14.01,2013-07-24 07:20:00,
2013-07-24 02:24:00,71.6,69.5,29.76,WNW,297,0.0,2.0,93,0.00,,CLR,0.00,0.00,VWS V14.01,2013-07-24 07:24:00,
2013-07-24 02:25:00,71.5,69.4,29.76,SSW,196,2.0,3.0,93,0.00,,BKN009,0.00,0.00,VWS V14.01,2013-07-24 07:25:00,
2013-07-24 02:29:00,71.5,69.4,29.76,WSW,257,0.0,3.0,93,0.00,,CLR,0.00,0.00,VWS V14.01,2013-07-24 07:29:00,
2013-07-24 02:30:00,71.5,69.4,29.75,WSW,257,0.0,3.0,93,0.00,,BKN009,0.00,0.00,VWS V14.01,2013-07-24 07:30:00,
2013-07-24 02:34:00,71.5,69.4,29.75,WSW,257,0.0,2.0,93,0.01,,CLR,0.01,0.00,VWS V14.01,2013-07-24 07:34:00,
2013-07-24 02:35:00,71.5,69.4,29.75,WSW,257,0.0,2.0,93,0.01,,BKN009,0.01,0.00,VWS V14.01,2013-07-24 07:35:00,
2013-07-24 02:39:00,71.5,69.7,29.75,WSW,257,0.0,1.0,94,0.01,,CLR,0.01,0.00,VWS V14.01,2013-07-24 07:39:00,
2013-07-24 02:40:00,71.5,69.7,29.75,WSW,257,0.0,1.0,94,0.01,,BKN009,0.01,0.00,VWS V14.01,2013-07-24 07:40:00,
2013-07-24 02:44:00,71.4,69.6,29.74,WNW,282,0.0,2.0,94,0.01,,CLR,0.01,0.00,VWS V14.01,2013-07-24 07:44:00,
2013-07-24 02:45:00,71.4,69.6,29.74,WNW,282,0.0,2.0,94,0.01,,BKN009,0.01,0.00,VWS V14.01,2013-07-24 07:45:00,
2013-07-24 02:50:00,71.4,69.6,29.74,WNW,282,0.0,0.0,94,0.01,,CLR,0.01,0.00,VWS V14.01,2013-07-24 07:50:00,
2013-07-24 02:55:00,71.3,69.2,29.74,WNW,282,0.0,0.0,93,0.01,,CLR,0.01,0.00,VWS V14.01,2013-07-24 07:55:00,
2013-07-24 03:00:00,71.3,69.5,29.74,WNW,282,0.0,0.0,94,0.01,,CLR,0.01,0.00,VWS V14.01,2013-07-24 08:00:00,
2013-07-24 03:05:00,71.3,69.5,29.74,WNW,282,0.0,0.0,94,0.01,,FEW013,0.01,0.00,VWS V14.01,2013-07-24 08:05:00,
2013-07-24 03:10:00,71.3,69.5,29.74,WNW,282,0.0,0.0,94,0.01,,FEW013,0.01,0.00,VWS V14.01,2013-07-24 08:10:00,
2013-07-24 03:15:00,71.3,69.8,29.73,WNW,282,0.0,0.0,95,0.01,,FEW013,0.01,0.00,VWS V14.01,2013-07-24 08:15:00,
2013-07-24 03:20:00,71.2,69.7,29.73,WNW,282,0.0,1.0,95,0.01,,FEW013,0.01,0.00,VWS V14.01,2013-07-24 08:20:00,
2013-07-24 03:25:00,71.2,69.7,29.73,WNW,282,1.0,1.0,95,0.01,,FEW013,0.01,0.00,VWS V14.01,2013-07-24 08:25:00,
2013-07-24 03:30:00,71.2,69.7,29.77,WNW,282,0.0,0.0,95,0.01,,FEW013,0.01,0.00,VWS V14.01,2013-07-24 08:30:00,
2013-07-24 03:35:00,71.2,69.7,29.77,WNW,282,0.0,1.0,95,0.01,,FEW013,0.01,0.00,VWS V14.01,2013-07-24 08:35:00,
2013-07-24 03:40:00,71.2,69.7,29.77,NNW,329,0.0,3.0,95,0.00,,FEW013,0.01,0.00,VWS V14.01,2013-07-24 08:40:00,
2013-07-24 03:45:00,71.1,69.6,29.76,NNW,329,0.0,0.0,95,0.00,,FEW013,0.01,0.00,VWS V14.01,2013-07-24 08:45:00,
2013-07-24 03:50:00,71.1,69.6,29.76,NNW,329,0.0,0.0,95,0.00,,FEW013,0.01,0.00,VWS V14.01,2013-07-24 08:50:00,
2013-07-24 03:55:00,71.1,69.6,29.76,NNW,329,0.0,0.0,95,0.00,,FEW013,0.01,0.00,VWS V14.01,2013-07-24 08:55:00,
2013-07-24 04:00:00,71.1,69.6,29.76,NNW,329,0.0,0.0,95,0.00,,BKN009,0.01,0.00,VWS V14.01,2013-07-24 09:00:00,
2013-07-24 04:01:00,71.1,69.6,29.76,NNW,329,0.0,0.0,95,0.00,,FEW120,0.01,0.00,VWS V14.01,2013-07-24 09:01:00,
2013-07-24 04:05:00,71.0,69.5,29.76,NNW,329,0.0,0.0,95,0.00,,BKN009,0.01,0.00,VWS V14.01,2013-07-24 09:05:00,
2013-07-24 04:06:00,71.0,69.5,29.76,NNW,329,0.0,0.0,95,0.00,,FEW120,0.01,0.00,VWS V14.01,2013-07-24 09:06:00,
2013-07-24 04:10:00,71.0,69.5,29.76,NNW,329,0.0,0.0,95,0.00,,BKN009,0.01,0.00,VWS V14.01,2013-07-24 09:10:00,
2013-07-24 04:11:00,71.0,69.5,29.76,NNW,329,0.0,0.0,95,0.00,,FEW120,0.01,0.00,VWS V14.01,2013-07-24 09:11:00,
2013-07-24 04:15:00,71.0,69.5,29.76,NNW,329,0.0,0.0,95,0.00,,BKN009,0.01,0.00,VWS V14.01,2013-07-24 09:15:00,
2013-07-24 04:16:00,71.0,69.5,29.76,NNW,329,0.0,0.0,95,0.00,,FEW120,0.01,0.00,VWS V14.01,2013-07-24 09:16:00,
2013-07-24 04:20:00,70.9,69.4,29.76,NNW,329,0.0,0.0,95,0.00,,BKN009,0.01,0.00,VWS V14.01,2013-07-24 09:20:00,
2013-07-24 04:21:00,70.9,69.4,29.76,NNW,329,0.0,0.0,95,0.00,,FEW120,0.01,0.00,VWS V14.01,2013-07-24 09:21:00,
2013-07-24 04:25:00,70.9,69.4,29.76,NNW,329,0.0,0.0,95,0.00,,BKN009,0.01,0.00,VWS V14.01,2013-07-24 09:25:00,
2013-07-24 04:26:00,70.9,69.4,29.76,NNW,329,0.0,0.0,95,0.00,,FEW120,0.01,0.00,VWS V14.01,2013-07-24 09:26:00,
2013-07-24 04:30:00,70.8,69.3,29.76,NNW,329,0.0,0.0,95,0.00,,BKN009,0.01,0.00,VWS V14.01,2013-07-24 09:30:00,
2013-07-24 04:31:00,70.8,69.3,29.76,NNW,329,0.0,0.0,95,0.00,,FEW120,0.01,0.00,VWS V14.01,2013-07-24 09:31:00,
2013-07-24 04:35:00,70.8,69.3,29.76,NNW,329,0.0,0.0,95,0.00,,BKN009,0.01,0.00,VWS V14.01,2013-07-24 09:35:00,
2013-07-24 04:37:00,70.8,69.3,29.76,NNW,329,0.0,0.0,95,0.00,,FEW120,0.01,0.00,VWS V14.01,2013-07-24 09:37:00,
2013-07-24 04:40:00,70.7,69.2,29.76,NNW,329,0.0,0.0,95,0.00,,BKN009,0.01,0.00,VWS V14.01,2013-07-24 09:40:00,
2013-07-24 04:42:00,70.7,69.2,29.76,NNW,329,0.0,0.0,95,0.00,,FEW120,0.01,0.00,VWS V14.01,2013-07-24 09:42:00,
2013-07-24 04:45:00,70.6,69.1,29.76,NNW,329,0.0,0.0,95,0.00,,BKN009,0.01,0.00,VWS V14.01,2013-07-24 09:45:00,
2013-07-24 04:47:00,70.6,69.1,29.76,NNW,329,0.0,0.0,95,0.00,,FEW120,0.01,0.00,VWS V14.01,2013-07-24 09:47:00,
2013-07-24 04:50:00,70.6,69.1,29.76,NNW,329,0.0,0.0,95,0.00,,BKN009,0.01,0.00,VWS V14.01,2013-07-24 09:50:00,
2013-07-24 04:52:00,70.6,69.1,29.76,NNW,329,0.0,0.0,95,0.00,,FEW120,0.01,0.00,VWS V14.01,2013-07-24 09:52:00,
2013-07-24 04:55:00,70.6,69.1,29.76,NNW,329,0.0,0.0,95,0.00,,BKN009,0.01,0.00,VWS V14.01,2013-07-24 09:55:00,
2013-07-24 04:57:00,70.6,69.1,29.76,NNW,329,0.0,0.0,95,0.00,,FEW120,0.01,0.00,VWS V14.01,2013-07-24 09:57:00,
2013-07-24 05:00:00,70.5,69.0,29.76,NNW,329,0.0,0.0,95,0.00,,BKN009,0.01,0.00,VWS V14.01,2013-07-24 10:00:00,
2013-07-24 05:02:00,70.5,69.0,29.76,NNW,329,0.0,0.0,95,0.00,,BKN070,0.01,0.00,VWS V14.01,2013-07-24 10:02:00,
2013-07-24 05:05:00,70.5,69.0,29.76,NNW,329,0.0,0.0,95,0.00,,BKN009,0.01,0.00,VWS V14.01,2013-07-24 10:05:00,
2013-07-24 05:08:00,70.5,69.0,29.76,NNW,329,0.0,0.0,95,0.00,,BKN070,0.01,0.00,VWS V14.01,2013-07-24 10:08:00,
2013-07-24 05:10:00,70.5,69.0,29.76,NNW,329,0.0,0.0,95,0.00,,BKN009,0.01,0.00,VWS V14.01,2013-07-24 10:10:00,
2013-07-24 05:13:00,70.4,68.9,29.76,NNW,329,0.0,0.0,95,0.00,,BKN070,0.01,0.00,VWS V14.01,2013-07-24 10:13:00,
2013-07-24 05:15:00,70.4,68.9,29.76,NNW,329,0.0,1.0,95,0.00,,BKN009,0.01,0.00,VWS V14.01,2013-07-24 10:15:00,
2013-07-24 05:18:00,70.4,69.2,29.76,NNW,329,0.0,0.0,96,0.00,,BKN070,0.01,0.00,VWS V14.01,2013-07-24 10:18:00,
2013-07-24 05:20:00,70.4,69.2,29.76,NNW,329,0.0,0.0,96,0.00,,BKN009,0.01,0.00,VWS V14.01,2013-07-24 10:20:00,
2013-07-24 05:23:00,70.4,69.2,29.76,NNW,329,0.0,0.0,96,0.00,,BKN070,0.01,0.00,VWS V14.01,2013-07-24 10:23:00,
2013-07-24 05:25:00,70.4,69.2,29.76,NNW,329,0.0,0.0,96,0.00,,BKN009,0.01,0.00,VWS V14.01,2013-07-24 10:25:00,
2013-07-24 05:28:00,70.4,69.2,29.76,NNW,329,0.0,0.0,96,0.00,,BKN070,0.01,0.00,VWS V14.01,2013-07-24 10:28:00,
2013-07-24 05:30:00,70.3,69.1,29.76,NNW,329,0.0,0.0,96,0.00,,BKN009,0.01,0.00,VWS V14.01,2013-07-24 10:30:00,
2013-07-24 05:33:00,70.3,69.1,29.76,NNW,329,0.0,1.0,96,0.00,,BKN070,0.01,0.00,VWS V14.01,2013-07-24 10:33:00,
2013-07-24 05:35:00,70.3,69.1,29.76,NNW,329,0.0,1.0,96,0.00,,BKN009,0.01,0.00,VWS V14.01,2013-07-24 10:35:00,
2013-07-24 05:38:00,70.3,69.1,29.76,NNW,329,0.0,0.0,96,0.00,,BKN070,0.01,0.00,VWS V14.01,2013-07-24 10:38:00,
2013-07-24 05:40:00,70.3,69.1,29.76,NNW,329,0.0,0.0,96,0.00,,BKN009,0.01,0.00,VWS V14.01,2013-07-24 10:40:00,
2013-07-24 05:43:00,70.3,69.1,29.76,NNW,329,0.0,0.0,96,0.00,,BKN070,0.01,0.00,VWS V14.01,2013-07-24 10:43:00,
2013-07-24 05:45:00,70.2,69.0,29.77,NNW,329,0.0,0.0,96,0.00,,BKN009,0.01,0.00,VWS V14.01,2013-07-24 10:45:00,
2013-07-24 05:48:00,70.2,68.7,29.77,NNW,329,0.0,0.0,95,0.00,,BKN070,0.01,0.00,VWS V14.01,2013-07-24 10:48:00,
2013-07-24 05:50:00,70.2,68.7,29.77,NNW,329,0.0,0.0,95,0.00,,BKN009,0.01,0.00,VWS V14.01,2013-07-24 10:50:00,
2013-07-24 05:53:00,70.1,68.6,29.77,NNW,329,0.0,0.0,95,0.00,,BKN070,0.01,0.00,VWS V14.01,2013-07-24 10:53:00,
2013-07-24 05:55:00,70.1,68.6,29.77,NNW,329,0.0,0.0,95,0.00,,BKN009,0.01,0.00,VWS V14.01,2013-07-24 10:55:00,
2013-07-24 05:58:00,70.1,68.6,29.77,NNW,329,0.0,0.0,95,0.00,,BKN070,0.01,0.00,VWS V14.01,2013-07-24 10:58:00,
2013-07-24 06:00:00,70.0,68.5,29.76,NNW,329,0.0,0.0,95,0.00,,BKN009,0.01,0.00,VWS V14.01,2013-07-24 11:00:00,
2013-07-24 06:04:00,70.0,68.5,29.76,NNW,329,0.0,0.0,95,0.00,,SCT055,0.01,0.00,VWS V14.01,2013-07-24 11:04:00,
2013-07-24 06:05:00,69.9,68.4,29.76,NNW,329,0.0,0.0,95,0.00,,BKN009,0.01,0.00,VWS V14.01,2013-07-24 11:05:00,
2013-07-24 06:09:00,69.9,68.4,29.76,NNW,329,0.0,0.0,95,0.00,,SCT055,0.01,0.00,VWS V14.01,2013-07-24 11:09:00,
2013-07-24 06:10:00,69.9,68.4,29.76,NNW,329,0.0,0.0,95,0.00,,BKN009,0.01,0.00,VWS V14.01,2013-07-24 11:10:00,
2013-07-24 06:14:00,69.9,68.4,29.76,NNW,329,0.0,0.0,95,0.00,,SCT055,0.01,0.00,VWS V14.01,2013-07-24 11:14:00,
2013-07-24 06:15:00,69.8,68.3,29.76,NNW,329,0.0,0.0,95,0.00,,BKN009,0.01,0.00,VWS V14.01,2013-07-24 11:15:00,
2013-07-24 06:19:00,69.8,68.3,29.76,NNW,329,0.0,0.0,95,0.00,,SCT055,0.01,0.00,VWS V14.01,2013-07-24 11:19:00,
2013-07-24 06:20:00,69.8,68.3,29.76,NNW,329,0.0,0.0,95,0.00,,BKN009,0.01,0.00,VWS V14.01,2013-07-24 11:20:00,
2013-07-24 06:24:00,69.7,68.5,29.76,NNW,329,0.0,0.0,96,0.00,,SCT055,0.01,0.00,VWS V14.01,2013-07-24 11:24:00,
2013-07-24 06:25:00,69.7,68.5,29.76,NNW,329,0.0,0.0,96,0.00,,BKN009,0.01,5.00,VWS V14.01,2013-07-24 11:25:00,
2013-07-24 06:29:00,69.7,68.5,29.76,NNW,329,0.0,0.0,96,0.00,,SCT055,0.01,7.00,VWS V14.01,2013-07-24 11:29:00,
2013-07-24 06:30:00,69.7,68.5,29.77,NNW,329,0.0,0.0,96,0.00,,BKN009,0.01,9.00,VWS V14.01,2013-07-24 11:30:00,
2013-07-24 06:34:00,69.6,68.4,29.77,NNW,329,0.0,0.0,96,0.00,,SCT055,0.01,11.00,VWS V14.01,2013-07-24 11:34:00,
2013-07-24 06:35:00,69.6,68.4,29.77,NNW,329,0.0,0.0,96,0.00,,BKN009,0.01,12.00,VWS V14.01,2013-07-24 11:35:00,
2013-07-24 06:39:00,69.6,68.4,29.77,NNW,329,0.0,0.0,96,0.00,,SCT055,0.01,14.00,VWS V14.01,2013-07-24 11:39:00,
2013-07-24 06:40:00,69.5,68.3,29.77,NNW,329,0.0,0.0,96,0.00,,BKN009,0.01,18.00,VWS V14.01,2013-07-24 11:40:00,
2013-07-24 06:44:00,69.6,68.4,29.77,NNW,329,0.0,0.0,96,0.00,,SCT055,0.01,21.00,VWS V14.01,2013-07-24 11:44:00,
2013-07-24 06:45:00,69.5,68.3,29.77,NNW,329,0.0,0.0,96,0.00,,BKN009,0.01,21.00,VWS V14.01,2013-07-24 11:45:00,
2013-07-24 06:49:00,69.5,68.3,29.77,NNW,329,0.0,0.0,96,0.00,,BKN055,0.01,26.00,VWS V14.01,2013-07-24 11:49:00,
2013-07-24 06:50:00,69.5,68.3,29.77,NNW,329,0.0,0.0,96,0.00,,BKN009,0.01,26.00,VWS V14.01,2013-07-24 11:50:00,
2013-07-24 06:54:00,69.6,68.4,29.77,NNW,329,0.0,0.0,96,0.00,,BKN055,0.01,33.00,VWS V14.01,2013-07-24 11:54:00,
2013-07-24 06:55:00,69.6,68.4,29.77,NNW,329,0.0,0.0,96,0.00,,BKN009,0.01,33.00,VWS V14.01,2013-07-24 11:55:00,
2013-07-24 06:59:00,69.6,68.4,29.77,NNW,329,0.0,0.0,96,0.00,,BKN055,0.01,39.00,VWS V14.01,2013-07-24 11:59:00,
2013-07-24 07:00:00,69.6,68.4,29.77,NNW,329,0.0,0.0,96,0.00,,BKN009,0.01,40.00,VWS V14.01,2013-07-24 12:00:00,
2013-07-24 07:04:00,69.6,68.4,29.77,NNW,329,0.0,0.0,96,0.00,,BKN017,0.01,46.00,VWS V14.01,2013-07-24 12:04:00,
2013-07-24 07:05:00,69.7,68.5,29.77,NNW,329,0.0,0.0,96,0.00,,BKN009,0.01,47.00,VWS V14.01,2013-07-24 12:05:00,
2013-07-24 07:09:00,69.7,68.8,29.77,NNW,329,0.0,0.0,97,0.00,,BKN017,0.01,49.00,VWS V14.01,2013-07-24 12:09:00,
2013-07-24 07:10:00,69.7,68.8,29.77,NNW,329,0.0,0.0,97,0.00,,BKN009,0.01,51.00,VWS V14.01,2013-07-24 12:10:00,
2013-07-24 07:15:00,69.9,69.0,29.78,NNW,329,0.0,1.0,97,0.00,,BKN017,0.01,58.00,VWS V14.01,2013-07-24 12:15:00,
2013-07-24 07:20:00,70.0,69.1,29.78,NNW,329,0.0,0.0,97,0.00,,SCT018,0.01,53.00,VWS V14.01,2013-07-24 12:20:00,
2013-07-24 07:25:00,70.2,69.3,29.78,NNW,329,0.0,0.0,97,0.00,,SCT018,0.01,70.00,VWS V14.01,2013-07-24 12:25:00,
2013-07-24 07:30:00,70.4,69.5,29.79,NNW,329,0.0,1.0,97,0.00,,SCT018,0.01,74.00,VWS V14.01,2013-07-24 12:30:00,
2013-07-24 07:35:00,70.8,69.9,29.79,NNW,329,0.0,1.0,97,0.00,,SCT019,0.01,86.00,VWS V14.01,2013-07-24 12:35:00,
2013-07-24 07:40:00,70.9,70.0,29.79,NNW,329,0.0,1.0,97,0.00,,SCT019,0.01,91.00,VWS V14.01,2013-07-24 12:40:00,
2013-07-24 07:45:00,71.0,70.1,29.80,NNW,329,0.0,0.0,97,0.00,,SCT019,0.01,83.00,VWS V14.01,2013-07-24 12:45:00,
2013-07-24 07:50:00,71.1,70.2,29.80,NNW,329,0.0,0.0,97,0.00,,BKN006,0.01,83.00,VWS V14.01,2013-07-24 12:50:00,
2013-07-24 07:55:00,71.3,70.4,29.80,NNW,329,0.0,0.0,97,0.00,,BKN006,0.01,109.00,VWS V14.01,2013-07-24 12:55:00,
2013-07-24 08:00:00,71.5,70.6,29.80,NNW,331,0.0,1.0,97,0.00,,BKN006,0.01,142.00,VWS V14.01,2013-07-24 13:00:00,
2013-07-24 08:05:00,71.9,71.0,29.80,NNW,331,0.0,1.0,97,0.00,,BKN009,0.01,153.00,VWS V14.01,2013-07-24 13:05:00,
2013-07-24 08:06:00,72.0,70.8,29.80,WSW,239,2.0,3.0,96,0.00,,BKN006,0.01,153.00,VWS V14.01,2013-07-24 13:06:00,
2013-07-24 08:10:00,72.7,71.2,29.80,WSW,239,0.0,3.0,95,0.00,,BKN009,0.01,156.00,VWS V14.01,2013-07-24 13:10:00,
2013-07-24 08:11:00,72.8,71.3,29.80,WSW,239,0.0,0.0,95,0.00,,BKN006,0.01,156.00,VWS V14.01,2013-07-24 13:11:00,
2013-07-24 08:15:00,73.1,71.3,29.80,WSW,239,0.0,0.0,94,0.00,,BKN009,0.01,167.00,VWS V14.01,2013-07-24 13:15:00,
2013-07-24 08:17:00,73.2,71.1,29.80,WSW,239,0.0,0.0,93,0.00,,SCT006,0.01,167.00,VWS V14.01,2013-07-24 13:17:00,
2013-07-24 08:20:00,73.4,70.9,29.80,WSW,239,0.0,0.0,92,0.00,,BKN009,0.01,171.00,VWS V14.01,2013-07-24 13:20:00,
2013-07-24 08:22:00,73.4,70.9,29.80,WSW,246,0.0,3.0,92,0.00,,SCT006,0.01,172.00,VWS V14.01,2013-07-24 13:22:00,
2013-07-24 08:25:00,73.4,70.9,29.80,South,188,0.0,3.0,92,0.00,,BKN009,0.01,181.00,VWS V14.01,2013-07-24 13:25:00,
2013-07-24 08:27:00,73.4,70.9,29.80,SE,128,0.0,3.0,92,0.00,,SCT006,0.01,181.00,VWS V14.01,2013-07-24 13:27:00,
2013-07-24 08:30:00,73.4,70.6,29.81,ESE,105,0.0,3.0,91,0.00,,BKN009,0.01,206.00,VWS V14.01,2013-07-24 13:30:00,
2013-07-24 08:32:00,73.4,70.3,29.81,ESE,120,0.0,1.0,90,0.00,,SCT006,0.01,214.00,VWS V14.01,2013-07-24 13:32:00,
2013-07-24 08:35:00,73.5,70.4,29.81,ESE,120,0.0,1.0,90,0.00,,BKN009,0.01,213.00,VWS V14.01,2013-07-24 13:35:00,
2013-07-24 08:37:00,73.5,70.7,29.81,ESE,119,0.0,1.0,91,0.00,,SCT006,0.01,195.00,VWS V14.01,2013-07-24 13:37:00,
2013-07-24 08:40:00,73.6,70.8,29.81,ESE,119,0.0,1.0,91,0.00,,BKN009,0.01,218.00,VWS V14.01,2013-07-24 13:40:00,
2013-07-24 08:42:00,73.7,70.9,29.81,ESE,119,0.0,1.0,91,0.00,,SCT006,0.01,218.00,VWS V14.01,2013-07-24 13:42:00,
2013-07-24 08:45:00,73.7,70.6,29.82,ESE,119,0.0,1.0,90,0.00,,BKN009,0.01,227.00,VWS V14.01,2013-07-24 13:45:00,
2013-07-24 08:47:00,73.8,70.7,29.82,ESE,119,0.0,1.0,90,0.00,,SCT006,0.01,206.00,VWS V14.01,2013-07-24 13:47:00,
2013-07-24 08:50:00,73.8,70.0,29.82,ENE,67,0.0,3.0,88,0.00,,BKN009,0.01,211.00,VWS V14.01,2013-07-24 13:50:00,
2013-07-24 08:52:00,73.9,70.1,29.82,ENE,68,0.0,1.0,88,0.00,,SCT006,0.01,241.00,VWS V14.01,2013-07-24 13:52:00,
2013-07-24 08:55:00,73.9,70.1,29.82,ENE,68,0.0,1.0,88,0.00,,BKN009,0.01,272.00,VWS V14.01,2013-07-24 13:55:00,
2013-07-24 08:57:00,73.9,70.5,29.82,ESE,103,0.0,1.0,89,0.00,,SCT006,0.01,287.00,VWS V14.01,2013-07-24 13:57:00,
2013-07-24 09:00:00,74.0,70.6,29.83,ESE,102,0.0,1.0,89,0.00,,BKN009,0.01,285.00,VWS V14.01,2013-07-24 14:00:00,
2013-07-24 09:02:00,74.2,71.1,29.83,ESE,102,0.0,0.0,90,0.00,,CLR,0.01,281.00,VWS V14.01,2013-07-24 14:02:00,
2013-07-24 09:05:00,74.2,69.8,29.83,ESE,102,0.0,0.0,86,0.00,,FEW026,0.01,285.00,VWS V14.01,2013-07-24 14:05:00,
2013-07-24 09:07:00,74.3,70.5,29.83,ESE,102,0.0,0.0,88,0.00,,CLR,0.01,287.00,VWS V14.01,2013-07-24 14:07:00,
2013-07-24 09:10:00,74.4,70.9,29.83,ESE,102,0.0,0.0,89,0.00,,FEW026,0.01,285.00,VWS V14.01,2013-07-24 14:10:00,
2013-07-24 09:12:00,74.4,70.3,29.83,ESE,102,0.0,0.0,87,0.00,,CLR,0.01,283.00,VWS V14.01,2013-07-24 14:12:00,
2013-07-24 09:15:00,74.4,69.9,29.83,ESE,103,0.0,1.0,86,0.00,,FEW026,0.01,373.00,VWS V14.01,2013-07-24 14:15:00,
2013-07-24 09:18:00,74.7,70.6,29.83,ESE,103,0.0,1.0,87,0.00,,CLR,0.01,403.00,VWS V14.01,2013-07-24 14:18:00,
2013-07-24 09:20:00,74.9,71.1,29.83,West,281,0.0,1.0,88,0.00,,FEW026,0.01,406.00,VWS V14.01,2013-07-24 14:20:00,
2013-07-24 09:23:00,75.1,70.3,29.83,SSE,150,1.0,1.0,85,0.00,,CLR,0.01,411.00,VWS V14.01,2013-07-24 14:23:00,
2013-07-24 09:25:00,75.0,70.2,29.83,North,5,0.0,1.0,85,0.00,,FEW026,0.01,404.00,VWS V14.01,2013-07-24 14:25:00,
2013-07-24 09:28:00,75.0,69.8,29.83,North,360,1.0,1.0,84,0.00,,CLR,0.01,390.00,VWS V14.01,2013-07-24 14:28:00,
2013-07-24 09:30:00,75.1,71.0,29.83,NNW,341,0.0,1.0,87,0.00,,FEW026,0.01,357.00,VWS V14.01,2013-07-24 14:30:00,
2013-07-24 09:33:00,75.1,70.3,29.83,WNW,288,3.0,3.0,85,0.00,,CLR,0.01,371.00,VWS V14.01,2013-07-24 14:33:00,
2013-07-24 09:35:00,75.1,70.6,29.83,WSW,250,0.0,4.0,86,0.00,,FEW026,0.01,431.00,VWS V14.01,2013-07-24 14:35:00,
2013-07-24 09:39:00,75.2,70.0,29.83,SW,225,2.0,4.0,84,0.00,,CLR,0.01,475.00,VWS V14.01,2013-07-24 14:39:00,
2013-07-24 09:40:00,75.2,70.7,29.83,SW,225,0.0,4.0,86,0.00,,FEW026,0.01,438.00,VWS V14.01,2013-07-24 14:40:00,
2013-07-24 09:44:00,75.4,70.9,29.83,West,263,0.0,3.0,86,0.00,,CLR,0.01,295.00,VWS V14.01,2013-07-24 14:44:00,
2013-07-24 09:45:00,75.5,70.7,29.83,NW,323,1.0,3.0,85,0.00,,FEW026,0.01,345.00,VWS V14.01,2013-07-24 14:45:00,
2013-07-24 09:49:00,75.5,70.3,29.83,NW,319,1.0,3.0,84,0.00,,CLR,0.01,390.00,VWS V14.01,2013-07-24 14:49:00,
2013-07-24 09:50:00,75.7,71.6,29.83,West,277,2.0,3.0,87,0.00,,FEW026,0.01,446.00,VWS V14.01,2013-07-24 14:50:00,
2013-07-24 09:54:00,75.9,70.4,29.83,West,278,0.0,3.0,83,0.00,,CLR,0.01,536.00,VWS V14.01,2013-07-24 14:54:00,
2013-07-24 09:55:00,76.0,70.8,29.83,West,278,0.0,3.0,84,0.00,,FEW026,0.01,570.00,VWS V14.01,2013-07-24 14:55:00,
2013-07-24 09:59:00,76.6,71.8,29.83,West,278,0.0,1.0,85,0.00,,CLR,0.01,564.00,VWS V14.01,2013-07-24 14:59:00,
2013-07-24 10:00:00,76.8,71.9,29.84,West,278,1.0,2.0,85,0.00,,FEW026,0.01,640.00,VWS V14.01,2013-07-24 15:00:00,
2013-07-24 10:04:00,76.4,70.1,29.84,West,281,0.0,5.0,81,0.00,,CLR,0.01,504.00,VWS V14.01,2013-07-24 15:04:00,
2013-07-24 10:05:00,76.2,70.7,29.84,West,271,1.0,5.0,83,0.00,,FEW026,0.01,559.00,VWS V14.01,2013-07-24 15:05:00,
2013-07-24 10:09:00,76.5,71.3,29.84,SW,221,0.0,2.0,84,0.00,,CLR,0.01,541.00,VWS V14.01,2013-07-24 15:09:00,
2013-07-24 10:10:00,76.6,71.4,29.84,SW,221,1.0,2.0,84,0.00,,FEW026,0.01,541.00,VWS V14.01,2013-07-24 15:10:00,
2013-07-24 10:15:00,76.8,71.6,29.84,SW,229,0.0,4.0,84,0.00,,CLR,0.01,494.00,VWS V14.01,2013-07-24 15:15:00,
2013-07-24 10:20:00,77.2,72.0,29.84,West,259,1.0,2.0,84,0.00,,CLR,0.01,501.00,VWS V14.01,2013-07-24 15:20:00,
2013-07-24 10:25:00,77.7,71.4,29.84,WNW,284,0.0,2.0,81,0.00,,CLR,0.01,684.00,VWS V14.01,2013-07-24 15:25:00,
2013-07-24 10:30:00,78.4,71.0,29.84,North,355,0.0,2.0,78,0.00,,CLR,0.01,761.00,VWS V14.01,2013-07-24 15:30:00,
2013-07-24 10:35:00,78.8,71.7,29.84,WSW,253,0.0,2.0,79,0.00,,CLR,0.01,837.00,VWS V14.01,2013-07-24 15:35:00,
2013-07-24 10:40:00,79.3,71.5,29.84,WSW,257,0.0,1.0,77,0.00,,CLR,0.01,803.00,VWS V14.01,2013-07-24 15:40:00,
2013-07-24 10:45:00,78.9,70.7,29.84,WNW,284,3.0,6.0,76,0.00,,CLR,0.01,893.00,VWS V14.01,2013-07-24 15:45:00,
2013-07-24 10:50:00,78.4,71.3,29.84,SSW,207,4.0,7.0,79,0.00,,CLR,0.01,246.00,VWS V14.01,2013-07-24 15:50:00,
2013-07-24 10:55:00,78.7,71.6,29.84,WSW,238,0.0,0.0,79,0.00,,CLR,0.01,896.00,VWS V14.01,2013-07-24 15:55:00,
2013-07-24 11:00:00,79.1,70.9,29.84,West,271,3.0,4.0,76,0.00,,FEW026,0.01,840.00,VWS V14.01,2013-07-24 16:00:00,
2013-07-24 11:01:00,79.2,71.4,29.84,SW,234,4.0,4.0,77,0.00,,SCT023,0.01,840.00,VWS V14.01,2013-07-24 16:01:00,
2013-07-24 11:05:00,79.6,70.6,29.84,West,279,0.0,4.0,74,0.00,,FEW026,0.01,946.00,VWS V14.01,2013-07-24 16:05:00,
2013-07-24 11:06:00,79.6,71.8,29.84,West,271,2.0,2.0,77,0.00,,SCT023,0.01,946.00,VWS V14.01,2013-07-24 16:06:00,
2013-07-24 11:10:00,79.5,70.9,29.84,SSW,202,0.0,4.0,75,0.00,,FEW026,0.01,752.00,VWS V14.01,2013-07-24 16:10:00,
2013-07-24 11:11:00,79.5,70.5,29.84,SSW,202,0.0,0.0,74,0.00,,SCT023,0.01,752.00,VWS V14.01,2013-07-24 16:11:00,
2013-07-24 11:15:00,79.2,70.2,29.85,SW,220,0.0,5.0,74,0.00,,FEW026,0.01,649.00,VWS V14.01,2013-07-24 16:15:00,
2013-07-24 11:16:00,79.1,71.3,29.85,WSW,255,1.0,1.0,77,0.00,,SCT023,0.01,649.00,VWS V14.01,2013-07-24 16:16:00,
2013-07-24 11:20:00,79.1,72.0,29.85,NW,321,1.0,3.0,79,0.00,,FEW026,0.01,362.00,VWS V14.01,2013-07-24 16:20:00,
2013-07-24 11:21:00,79.2,72.1,29.85,SW,226,2.0,3.0,79,0.00,,SCT023,0.01,362.00,VWS V14.01,2013-07-24 16:21:00,
2013-07-24 11:25:00,79.2,70.2,29.85,SW,219,5.0,6.0,74,0.00,,FEW026,0.01,362.00,VWS V14.01,2013-07-24 16:25:00,
2013-07-24 11:26:00,79.1,70.1,29.85,WSW,254,0.0,5.0,74,0.00,,SCT023,0.01,362.00,VWS V14.01,2013-07-24 16:26:00,
2013-07-24 11:30:00,78.9,70.3,29.85,WSW,241,4.0,8.0,75,0.00,,FEW026,0.01,415.00,VWS V14.01,2013-07-24 16:30:00,
2013-07-24 11:31:00,78.8,70.2,29.85,NW,304,1.0,5.0,75,0.00,,SCT028,0.01,399.00,VWS V14.01,2013-07-24 16:31:00,
2013-07-24 11:35:00,79.0,69.2,29.85,WSW,237,0.0,5.0,72,0.00,,FEW026,0.01,311.00,VWS V14.01,2013-07-24 16:35:00,
2013-07-24 11:36:00,78.9,69.9,29.85,SW,217,0.0,2.0,74,0.00,,SCT028,0.01,366.00,VWS V14.01,2013-07-24 16:36:00,
2013-07-24 11:40:00,79.1,70.1,29.85,South,175,0.0,2.0,74,0.00,,FEW026,0.01,1021.00,VWS V14.01,2013-07-24 16:40:00,
2013-07-24 11:41:00,79.7,71.5,29.85,SW,219,3.0,3.0,76,0.00,,SCT028,0.01,1021.00,VWS V14.01,2013-07-24 16:41:00,
2013-07-24 11:45:00,79.7,70.7,29.85,South,182,0.0,5.0,74,0.00,,FEW026,0.01,352.00,VWS V14.01,2013-07-24 16:45:00,
2013-07-24 11:47:00,79.7,70.7,29.85,SW,220,2.0,2.0,74,0.00,,SCT028,0.01,352.00,VWS V14.01,2013-07-24 16:47:00,
2013-07-24 11:50:00,79.9,70.1,29.85,WSW,246,3.0,7.0,72,0.00,,FEW026,0.01,362.00,VWS V14.01,2013-07-24 16:50:00,
2013-07-24 11:52:00,79.7,70.7,29.85,WSW,248,4.0,4.0,74,0.00,,SCT028,0.01,265.00,VWS V14.01,2013-07-24 16:52:00,
2013-07-24 11:55:00,79.8,70.4,29.85,WSW,251,2.0,7.0,73,0.00,,FEW026,0.01,1030.00,VWS V14.01,2013-07-24 16:55:00,
2013-07-24 11:57:00,80.1,70.7,29.85,SW,221,1.0,9.0,73,0.00,,SCT028,0.01,432.00,VWS V14.01,2013-07-24 16:57:00,
2013-07-24 12:00:00,80.0,70.2,29.86,West,278,0.0,9.0,72,0.00,,FEW026,0.01,434.00,VWS V14.01,2013-07-24 17:00:00,
2013-07-24 12:02:00,80.0,70.2,29.86,West,279,2.0,2.0,72,0.00,,FEW065,0.01,418.00,VWS V14.01,2013-07-24 17:02:00,
2013-07-24 12:05:00,80.3,72.1,29.86,SSE,156,0.0,2.0,76,0.00,,FEW026,0.01,476.00,VWS V14.01,2013-07-24 17:05:00,
2013-07-24 12:07:00,81.0,72.7,29.86,SE,134,1.0,3.0,76,0.00,,FEW065,0.01,476.00,VWS V14.01,2013-07-24 17:07:00,
2013-07-24 12:10:00,81.8,70.6,29.86,West,277,3.0,4.0,69,0.00,,FEW026,0.01,1104.00,VWS V14.01,2013-07-24 17:10:00,
2013-07-24 12:12:00,82.1,71.8,29.86,NW,304,1.0,3.0,71,0.00,,FEW065,0.01,1187.00,VWS V14.01,2013-07-24 17:12:00,
2013-07-24 12:15:00,81.9,70.7,29.85,SSW,198,0.0,4.0,69,0.00,,FEW026,0.01,380.00,VWS V14.01,2013-07-24 17:15:00,
2013-07-24 12:17:00,81.4,70.3,29.85,West,276,2.0,4.0,69,0.00,,FEW065,0.01,380.00,VWS V14.01,2013-07-24 17:17:00,
2013-07-24 12:20:00,81.4,71.9,29.85,SSE,153,0.0,4.0,73,0.00,,FEW026,0.01,380.00,VWS V14.01,2013-07-24 17:20:00,
2013-07-24 12:22:00,81.6,72.1,29.85,SSE,153,0.0,1.0,73,0.00,,FEW065,0.01,531.00,VWS V14.01,2013-07-24 17:22:00,
2013-07-24 12:25:00,81.0,70.3,29.85,SW,227,2.0,2.0,70,0.00,,FEW026,0.01,234.00,VWS V14.01,2013-07-24 17:25:00,
2013-07-24 12:27:00,80.3,69.6,29.85,SW,227,2.0,4.0,70,0.00,,FEW065,0.01,230.00,VWS V14.01,2013-07-24 17:27:00,
2013-07-24 12:30:00,80.9,71.4,29.85,SSW,205,2.0,4.0,73,0.00,,FEW026,0.01,230.00,VWS V14.01,2013-07-24 17:30:00,
2013-07-24 12:32:00,81.2,71.7,29.85,WSW,240,3.0,4.0,73,0.00,,FEW065,0.01,230.00,VWS V14.01,2013-07-24 17:32:00,
2013-07-24 12:35:00,81.3,70.2,29.85,WNW,282,3.0,7.0,69,0.00,,FEW026,0.01,1034.00,VWS V14.01,2013-07-24 17:35:00,
2013-07-24 12:37:00,81.4,70.7,29.85,WSW,252,1.0,4.0,70,0.00,,FEW065,0.01,1034.00,VWS V14.01,2013-07-24 17:37:00,
2013-07-24 12:40:00,81.6,70.9,29.85,WNW,292,0.0,4.0,70,0.00,,FEW026,0.01,1034.00,VWS V14.01,2013-07-24 17:40:00,
2013-07-24 12:42:00,81.9,71.2,29.85,West,265,8.0,8.0,70,0.00,,FEW065,0.01,603.00,VWS V14.01,2013-07-24 17:42:00,
2013-07-24 12:45:00,81.3,71.4,29.85,SSE,167,1.0,8.0,72,0.00,,FEW026,0.01,603.00,VWS V14.01,2013-07-24 17:45:00,
2013-07-24 12:47:00,80.9,70.2,29.85,West,274,0.0,5.0,70,0.00,,FEW065,0.01,399.00,VWS V14.01,2013-07-24 17:47:00,
2013-07-24 12:50:00,80.6,70.8,29.85,West,274,0.0,5.0,72,0.00,,FEW026,0.01,403.00,VWS V14.01,2013-07-24 17:50:00,
2013-07-24 12:53:00,80.7,72.0,29.85,West,274,0.0,1.0,75,0.00,,FEW065,0.01,552.00,VWS V14.01,2013-07-24 17:53:00,
2013-07-24 12:55:00,80.7,70.4,29.85,WSW,251,3.0,3.0,71,0.00,,FEW026,0.01,536.00,VWS V14.01,2013-07-24 17:55:00,
2013-07-24 12:58:00,80.8,70.5,29.85,West,262,2.0,6.0,71,0.00,,FEW065,0.01,617.00,VWS V14.01,2013-07-24 17:58:00,
2013-07-24 13:00:00,81.3,70.6,29.84,West,261,1.0,6.0,70,0.00,,FEW026,0.01,584.00,VWS V14.01,2013-07-24 18:00:00,
2013-07-24 13:03:00,81.6,70.4,29.84,West,261,1.0,3.0,69,0.00,,BKN049,0.01,540.00,VWS V14.01,2013-07-24 18:03:00,
2013-07-24 13:05:00,81.4,70.3,29.84,East,87,2.0,5.0,69,0.00,,FEW026,0.01,557.00,VWS V14.01,2013-07-24 18:05:00,
2013-07-24 13:08:00,81.4,70.7,29.84,SSW,194,0.0,6.0,70,0.00,,BKN049,0.01,680.00,VWS V14.01,2013-07-24 18:08:00,
2013-07-24 13:10:00,81.5,70.8,29.84,West,279,2.0,6.0,70,0.00,,FEW026,0.01,476.00,VWS V14.01,2013-07-24 18:10:00,
2013-07-24 13:13:00,81.1,70.8,29.84,WSW,247,1.0,2.0,71,0.00,,BKN049,0.01,380.00,VWS V14.01,2013-07-24 18:13:00,
2013-07-24 13:15:00,80.8,70.9,29.84,South,179,0.0,2.0,72,0.00,,FEW026,0.01,434.00,VWS V14.01,2013-07-24 18:15:00,
2013-07-24 13:18:00,80.5,71.1,29.84,WSW,246,3.0,4.0,73,0.00,,BKN049,0.01,429.00,VWS V14.01,2013-07-24 18:18:00,
2013-07-24 13:20:00,80.4,71.4,29.84,SSW,194,1.0,4.0,74,0.00,,FEW026,0.01,341.00,VWS V14.01,2013-07-24 18:20:00,
2013-07-24 13:23:00,80.5,71.1,29.84,SSW,194,0.0,1.0,73,0.00,,BKN049,0.01,311.00,VWS V14.01,2013-07-24 18:23:00,
2013-07-24 13:25:00,80.3,70.9,29.84,SSW,192,2.0,3.0,73,0.00,,FEW026,0.01,392.00,VWS V14.01,2013-07-24 18:25:00,
2013-07-24 13:28:00,80.2,70.8,29.84,SSW,209,0.0,4.0,73,0.00,,BKN049,0.01,366.00,VWS V14.01,2013-07-24 18:28:00,
2013-07-24 13:30:00,80.1,71.5,29.84,SSW,209,0.0,4.0,75,0.00,,FEW026,0.01,334.00,VWS V14.01,2013-07-24 18:30:00,
2013-07-24 13:33:00,80.0,70.6,29.84,SW,218,0.0,4.0,73,0.00,,BKN049,0.01,343.00,VWS V14.01,2013-07-24 18:33:00,
2013-07-24 13:35:00,80.0,71.0,29.84,SW,218,1.0,4.0,74,0.00,,FEW026,0.01,332.00,VWS V14.01,2013-07-24 18:35:00,
2013-07-24 13:38:00,79.8,71.6,29.84,SW,218,0.0,1.0,76,0.00,,BKN049,0.01,299.00,VWS V14.01,2013-07-24 18:38:00,
2013-07-24 13:40:00,79.7,71.1,29.84,SW,218,1.0,2.0,75,0.00,,FEW026,0.01,287.00,VWS V14.01,2013-07-24 18:40:00,
2013-07-24 13:43:00,79.5,71.3,29.84,SW,218,1.0,2.0,76,0.00,,BKN049,0.01,327.00,VWS V14.01,2013-07-24 18:43:00,
2013-07-24 13:45:00,79.5,70.5,29.84,SW,234,4.0,5.0,74,0.00,,FEW026,0.01,424.00,VWS V14.01,2013-07-24 18:45:00,
2013-07-24 13:48:00,80.3,72.1,29.84,West,270,2.0,4.0,76,0.00,,OVC031,0.01,965.00,VWS V14.01,2013-07-24 18:48:00,
2013-07-24 13:50:00,81.1,72.0,29.84,SSW,203,0.0,4.0,74,0.00,,FEW026,0.01,541.00,VWS V14.01,2013-07-24 18:50:00,
2013-07-24 13:53:00,81.5,72.0,29.84,SSW,205,0.0,1.0,73,0.00,,OVC031,0.01,350.00,VWS V14.01,2013-07-24 18:53:00,
2013-07-24 13:55:00,81.2,70.9,29.84,SW,219,0.0,2.0,71,0.00,,FEW026,0.01,287.00,VWS V14.01,2013-07-24 18:55:00,
2013-07-24 13:58:00,80.7,71.7,29.84,SW,219,0.0,2.0,74,0.00,,OVC031,0.01,388.00,VWS V14.01,2013-07-24 18:58:00,
2013-07-24 14:00:00,80.5,71.8,29.84,SW,219,0.0,2.0,75,0.00,,FEW026,0.01,378.00,VWS V14.01,2013-07-24 19:00:00,
2013-07-24 14:03:00,80.8,72.5,29.84,SW,219,2.0,2.0,76,0.00,,OVC042,0.01,415.00,VWS V14.01,2013-07-24 19:03:00,
2013-07-24 14:05:00,81.1,71.6,29.84,SW,219,1.0,2.0,73,0.00,,FEW026,0.01,392.00,VWS V14.01,2013-07-24 19:05:00,
2013-07-24 14:08:00,80.9,71.0,29.84,SW,220,0.0,3.0,72,0.00,,OVC042,0.01,329.00,VWS V14.01,2013-07-24 19:08:00,
2013-07-24 14:10:00,80.8,71.3,29.84,SW,220,0.0,3.0,73,0.00,,FEW026,0.01,304.00,VWS V14.01,2013-07-24 19:10:00,
2013-07-24 14:13:00,80.3,70.9,29.84,WNW,302,3.0,3.0,73,0.00,,OVC042,0.01,348.00,VWS V14.01,2013-07-24 19:13:00,
2013-07-24 14:15:00,80.1,71.1,29.84,WNW,301,0.0,3.0,74,0.00,,FEW026,0.01,394.00,VWS V14.01,2013-07-24 19:15:00,
2013-07-24 14:19:00,80.4,71.8,29.84,WNW,301,1.0,1.0,75,0.00,,OVC042,0.01,364.00,VWS V14.01,2013-07-24 19:19:00,
2013-07-24 14:20:00,80.5,72.6,29.84,WNW,301,0.0,1.0,77,0.00,,FEW026,0.01,343.00,VWS V14.01,2013-07-24 19:20:00,
2013-07-24 14:24:00,80.6,72.7,29.84,WNW,301,0.0,2.0,77,0.00,,OVC042,0.01,388.00,VWS V14.01,2013-07-24 19:24:00,
2013-07-24 14:25:00,80.7,72.4,29.84,WNW,301,0.0,2.0,76,0.00,,FEW026,0.01,388.00,VWS V14.01,2013-07-24 19:25:00,
2013-07-24 14:29:00,81.6,71.7,29.84,WNW,301,0.0,2.0,72,0.00,,OVC042,0.01,923.00,VWS V14.01,2013-07-24 19:29:00,
2013-07-24 14:30:00,82.2,72.7,29.84,West,275,0.0,2.0,73,0.00,,FEW026,0.01,888.00,VWS V14.01,2013-07-24 19:30:00,
2013-07-24 14:34:00,83.0,73.9,29.84,West,275,0.0,1.0,74,0.00,,OVC042,0.01,949.00,VWS V14.01,2013-07-24 19:34:00,
2013-07-24 14:35:00,83.3,72.9,29.84,ENE,69,1.0,3.0,71,0.00,,FEW026,0.01,983.00,VWS V14.01,2013-07-24 19:35:00,
2013-07-24 14:39:00,82.8,72.0,29.84,SE,136,0.0,3.0,70,0.00,,OVC042,0.01,338.00,VWS V14.01,2013-07-24 19:39:00,
2013-07-24 14:40:00,82.4,72.5,29.84,West,274,0.0,3.0,72,0.00,,FEW026,0.01,338.00,VWS V14.01,2013-07-24 19:40:00,
2013-07-24 14:44:00,81.6,71.7,29.84,South,173,0.0,2.0,72,0.00,,OVC042,0.01,250.00,VWS V14.01,2013-07-24 19:44:00,
2013-07-24 14:45:00,81.3,71.4,29.84,South,173,0.0,2.0,72,0.00,,FEW026,0.01,236.00,VWS V14.01,2013-07-24 19:45:00,
2013-07-24 14:49:00,80.7,71.7,29.84,NW,315,1.0,4.0,74,0.00,,OVC042,0.01,285.00,VWS V14.01,2013-07-24 19:49:00,
2013-07-24 14:50:00,80.6,71.2,29.84,NW,315,0.0,4.0,73,0.00,,FEW026,0.01,431.00,VWS V14.01,2013-07-24 19:50:00,
2013-07-24 14:54:00,81.3,72.6,29.84,NW,315,0.0,1.0,75,0.00,,OVC042,0.01,431.00,VWS V14.01,2013-07-24 19:54:00,
2013-07-24 14:55:00,81.4,72.3,29.84,WNW,296,0.0,2.0,74,0.00,,FEW026,0.01,446.00,VWS V14.01,2013-07-24 19:55:00,
2013-07-24 14:59:00,81.4,71.9,29.84,SSW,205,0.0,2.0,73,0.00,,OVC042,0.01,338.00,VWS V14.01,2013-07-24 19:59:00,
2013-07-24 15:00:00,81.4,72.3,29.84,SSW,205,0.0,2.0,74,0.00,,FEW026,0.01,338.00,VWS V14.01,2013-07-24 20:00:00,
2013-07-24 15:04:00,81.6,71.7,29.84,SSW,205,0.0,1.0,72,0.00,,SCT038,0.01,181.00,VWS V14.01,2013-07-24 20:04:00,
2013-07-24 15:05:00,81.4,71.5,29.84,SSW,205,0.0,1.0,72,0.00,,FEW026,0.01,181.00,VWS V14.01,2013-07-24 20:05:00,
2013-07-24 15:09:00,80.7,72.0,29.84,SSW,205,0.0,1.0,75,0.00,,SCT038,0.01,221.00,VWS V14.01,2013-07-24 20:09:00,
2013-07-24 15:10:00,80.7,72.4,29.84,SSW,205,0.0,1.0,76,0.00,,FEW026,0.01,895.00,VWS V14.01,2013-07-24 20:10:00,
2013-07-24 15:14:00,82.7,73.2,29.84,WNW,300,4.0,5.0,73,0.00,,SCT038,0.01,933.00,VWS V14.01,2013-07-24 20:14:00,
2013-07-24 15:15:00,83.0,73.5,29.84,WSW,247,2.0,5.0,73,0.00,,FEW026,0.01,1011.00,VWS V14.01,2013-07-24 20:15:00,
2013-07-24 15:19:00,82.8,72.0,29.84,ESE,119,0.0,4.0,70,0.00,,SCT038,0.01,446.00,VWS V14.01,2013-07-24 20:19:00,
2013-07-24 15:20:00,82.6,72.2,29.84,ESE,123,0.0,4.0,71,0.00,,FEW026,0.01,244.00,VWS V14.01,2013-07-24 20:20:00,
2013-07-24 15:24:00,81.7,71.8,29.84,ESE,123,0.0,1.0,72,0.00,,SCT038,0.01,209.00,VWS V14.01,2013-07-24 20:24:00,
2013-07-24 15:25:00,81.4,71.9,29.84,ESE,123,0.0,1.0,73,0.00,,FEW026,0.01,174.00,VWS V14.01,2013-07-24 20:25:00,
2013-07-24 15:29:00,80.3,70.9,29.84,South,179,0.0,2.0,73,0.00,,SCT038,0.01,127.00,VWS V14.01,2013-07-24 20:29:00,
2013-07-24 15:30:00,80.2,71.2,29.84,South,179,0.0,2.0,74,0.00,,FEW026,0.01,127.00,VWS V14.01,2013-07-24 20:30:00,
2013-07-24 15:34:00,81.6,74.1,29.84,South,179,0.0,1.0,78,0.00,,SCT038,0.01,823.00,VWS V14.01,2013-07-24 20:34:00,
2013-07-24 15:35:00,82.1,73.0,29.84,South,179,0.0,1.0,74,0.00,,FEW026,0.01,831.00,VWS V14.01,2013-07-24 20:35:00,
2013-07-24 15:39:00,83.2,71.6,29.84,WNW,292,0.0,3.0,68,0.00,,SCT038,0.01,863.00,VWS V14.01,2013-07-24 20:39:00,
2013-07-24 15:40:00,83.2,71.6,29.84,WNW,292,1.0,3.0,68,0.00,,FEW026,0.01,872.00,VWS V14.01,2013-07-24 20:40:00,
2013-07-24 15:45:00,83.5,71.8,29.83,WNW,291,0.0,5.0,68,0.00,,SCT038,0.01,881.00,VWS V14.01,2013-07-24 20:45:00,
2013-07-24 15:50:00,84.3,71.7,29.83,ESE,122,0.0,2.0,66,0.00,,SCT038,0.01,895.00,VWS V14.01,2013-07-24 20:50:00,
2013-07-24 15:55:00,83.9,71.3,29.83,West,279,0.0,3.0,66,0.00,,SCT038,0.01,860.00,VWS V14.01,2013-07-24 20:55:00,
2013-07-24 16:00:00,84.2,70.7,29.83,West,279,0.0,1.0,64,0.00,,SCT038,0.01,775.00,VWS V14.01,2013-07-24 21:00:00,
2013-07-24 16:05:00,84.4,70.0,29.83,West,279,1.0,1.0,62,0.00,,BKN040,0.01,809.00,VWS V14.01,2013-07-24 21:05:00,
2013-07-24 16:10:00,83.6,71.5,29.83,West,275,1.0,1.0,67,0.00,,BKN040,0.01,793.00,VWS V14.01,2013-07-24 21:10:00,
2013-07-24 16:15:00,82.7,70.2,29.83,West,275,0.0,0.0,66,0.00,,BKN040,0.01,148.00,VWS V14.01,2013-07-24 21:15:00,
2013-07-24 16:20:00,81.0,69.4,29.83,West,275,0.0,2.0,68,0.00,,BKN040,0.01,144.00,VWS V14.01,2013-07-24 21:20:00,
2013-07-24 16:25:00,80.1,71.5,29.83,West,275,0.0,0.0,75,0.00,,BKN040,0.01,109.00,VWS V14.01,2013-07-24 21:25:00,
2013-07-24 16:30:00,82.0,70.0,29.83,West,275,0.0,0.0,67,0.00,,BKN040,0.01,682.00,VWS V14.01,2013-07-24 21:30:00,
2013-07-24 16:35:00,82.9,70.8,29.83,West,275,0.0,1.0,67,0.00,,BKN040,0.01,673.00,VWS V14.01,2013-07-24 21:35:00,
2013-07-24 16:40:00,83.0,70.9,29.83,West,275,0.0,1.0,67,0.00,,FEW026,0.01,448.00,VWS V14.01,2013-07-24 21:40:00,
2013-07-24 16:41:00,83.0,71.8,29.83,West,275,0.0,0.0,69,0.00,,BKN040,0.01,448.00,VWS V14.01,2013-07-24 21:41:00,
2013-07-24 16:45:00,82.4,69.0,29.83,West,275,2.0,3.0,64,0.00,,FEW026,0.01,643.00,VWS V14.01,2013-07-24 21:45:00,
2013-07-24 16:46:00,82.4,69.0,29.83,West,275,1.0,2.0,64,0.00,,BKN040,0.01,643.00,VWS V14.01,2013-07-24 21:46:00,
2013-07-24 16:50:00,82.0,70.0,29.83,West,275,0.0,2.0,67,0.00,,FEW026,0.01,496.00,VWS V14.01,2013-07-24 21:50:00,
2013-07-24 16:51:00,82.0,70.0,29.83,West,275,0.0,0.0,67,0.00,,BKN040,0.01,496.00,VWS V14.01,2013-07-24 21:51:00,
2013-07-24 16:55:00,82.8,70.3,29.83,West,270,0.0,3.0,66,0.00,,FEW026,0.01,364.00,VWS V14.01,2013-07-24 21:55:00,
2013-07-24 16:56:00,82.9,70.4,29.83,West,270,0.0,0.0,66,0.00,,BKN040,0.01,364.00,VWS V14.01,2013-07-24 21:56:00,
2013-07-24 17:00:00,83.9,70.4,29.83,South,178,0.0,2.0,64,0.00,,FEW026,0.01,664.00,VWS V14.01,2013-07-24 22:00:00,
2013-07-24 17:01:00,84.0,70.5,29.83,South,178,0.0,0.0,64,0.00,,BKN045,0.01,664.00,VWS V14.01,2013-07-24 22:01:00,
2013-07-24 17:05:00,84.0,70.1,29.83,SW,221,0.0,2.0,63,0.00,,FEW026,0.01,621.00,VWS V14.01,2013-07-24 22:05:00,
2013-07-24 17:06:00,83.8,69.9,29.83,SW,221,0.0,0.0,63,0.00,,BKN045,0.01,621.00,VWS V14.01,2013-07-24 22:06:00,
2013-07-24 17:10:00,83.4,71.7,29.83,SW,221,0.0,0.0,68,0.00,,FEW026,0.01,548.00,VWS V14.01,2013-07-24 22:10:00,
2013-07-24 17:11:00,83.4,71.7,29.83,SW,221,0.0,0.0,68,0.00,,BKN045,0.01,548.00,VWS V14.01,2013-07-24 22:11:00,
2013-07-24 17:15:00,83.7,70.2,29.82,SW,221,0.0,2.0,64,0.00,,FEW026,0.01,541.00,VWS V14.01,2013-07-24 22:15:00,
2013-07-24 17:16:00,83.9,71.3,29.82,SW,221,1.0,1.0,66,0.00,,BKN045,0.01,541.00,VWS V14.01,2013-07-24 22:16:00,
2013-07-24 17:20:00,84.4,70.0,29.82,SW,221,0.0,1.0,62,0.00,,FEW026,0.01,526.00,VWS V14.01,2013-07-24 22:20:00,
2013-07-24 17:21:00,84.4,71.4,29.82,SW,221,0.0,1.0,65,0.00,,BKN045,0.01,533.00,VWS V14.01,2013-07-24 22:21:00,
2013-07-24 17:25:00,84.7,68.8,29.82,SW,221,1.0,2.0,59,0.00,,FEW026,0.01,559.00,VWS V14.01,2013-07-24 22:25:00,
2013-07-24 17:26:00,84.7,68.8,29.82,SW,224,1.0,1.0,59,0.00,,BKN045,0.01,557.00,VWS V14.01,2013-07-24 22:26:00,
2013-07-24 17:30:00,84.8,70.8,29.82,SW,224,0.0,1.0,63,0.00,,FEW026,0.01,540.00,VWS V14.01,2013-07-24 22:30:00,
2013-07-24 17:31:00,84.9,70.0,29.82,SW,224,0.0,1.0,61,0.00,,BKN045,0.01,540.00,VWS V14.01,2013-07-24 22:31:00,
2013-07-24 17:35:00,83.7,70.7,29.82,SW,224,0.0,1.0,65,0.00,,FEW026,0.01,171.00,VWS V14.01,2013-07-24 22:35:00,
2013-07-24 17:36:00,83.4,69.9,29.82,SW,224,0.0,0.0,64,0.00,,BKN045,0.01,149.00,VWS V14.01,2013-07-24 22:36:00,
2013-07-24 17:40:00,82.5,69.6,29.82,SW,224,0.0,1.0,65,0.00,,FEW026,0.01,527.00,VWS V14.01,2013-07-24 22:40:00,
2013-07-24 17:41:00,82.6,71.0,29.82,SW,224,0.0,0.0,68,0.00,,BKN045,0.01,527.00,VWS V14.01,2013-07-24 22:41:00,
2013-07-24 17:45:00,83.5,69.1,29.82,SW,224,0.0,2.0,62,0.00,,FEW026,0.01,536.00,VWS V14.01,2013-07-24 22:45:00,
2013-07-24 17:46:00,83.8,70.8,29.82,SW,224,0.0,0.0,65,0.00,,BKN045,0.01,533.00,VWS V14.01,2013-07-24 22:46:00,
2013-07-24 17:50:00,84.4,70.9,29.82,SW,224,0.0,1.0,64,0.00,,FEW026,0.01,513.00,VWS V14.01,2013-07-24 22:50:00,
2013-07-24 17:51:00,84.5,70.5,29.82,SW,224,0.0,1.0,63,0.00,,BKN045,0.01,508.00,VWS V14.01,2013-07-24 22:51:00,
2013-07-24 17:55:00,84.6,71.1,29.82,SW,224,0.0,1.0,64,0.00,,FEW026,0.01,167.00,VWS V14.01,2013-07-24 22:55:00,
2013-07-24 17:56:00,84.4,70.0,29.82,SW,224,0.0,1.0,62,0.00,,BKN045,0.01,167.00,VWS V14.01,2013-07-24 22:56:00,
2013-07-24 18:00:00,84.1,70.2,29.82,SW,224,0.0,2.0,63,0.00,,FEW026,0.01,462.00,VWS V14.01,2013-07-24 23:00:00,
2013-07-24 18:01:00,84.0,69.6,29.82,SW,224,0.0,1.0,62,0.00,,BKN060,0.01,469.00,VWS V14.01,2013-07-24 23:01:00,
2013-07-24 18:05:00,83.9,71.3,29.82,ESE,121,1.0,1.0,66,0.00,,FEW026,0.01,127.00,VWS V14.01,2013-07-24 23:05:00,
2013-07-24 18:06:00,83.6,70.6,29.82,ESE,119,0.0,1.0,65,0.00,,BKN060,0.01,123.00,VWS V14.01,2013-07-24 23:06:00,
2013-07-24 18:10:00,82.5,70.4,29.82,ESE,119,0.0,1.0,67,0.00,,FEW026,0.01,72.00,VWS V14.01,2013-07-24 23:10:00,
2013-07-24 18:11:00,82.0,70.0,29.82,ESE,119,0.0,0.0,67,0.00,,BKN060,0.01,76.00,VWS V14.01,2013-07-24 23:11:00,
2013-07-24 18:15:00,80.8,70.5,29.82,ESE,119,0.0,0.0,71,0.00,,FEW026,0.01,72.00,VWS V14.01,2013-07-24 23:15:00,
2013-07-24 18:17:00,80.5,70.2,29.82,ESE,119,0.0,0.0,71,0.00,,BKN060,0.01,70.00,VWS V14.01,2013-07-24 23:17:00,
2013-07-24 18:20:00,79.7,70.3,29.82,ESE,119,0.0,0.0,73,0.00,,FEW026,0.01,74.00,VWS V14.01,2013-07-24 23:20:00,
2013-07-24 18:22:00,79.6,71.0,29.82,ESE,119,0.0,0.0,75,0.00,,BKN060,0.01,318.00,VWS V14.01,2013-07-24 23:22:00,
2013-07-24 18:25:00,80.1,70.3,29.82,ESE,119,0.0,0.0,72,0.00,,FEW026,0.01,295.00,VWS V14.01,2013-07-24 23:25:00,
2013-07-24 18:27:00,80.3,70.9,29.82,ESE,119,0.0,0.0,73,0.00,,BKN060,0.01,295.00,VWS V14.01,2013-07-24 23:27:00,
2013-07-24 18:30:00,81.2,70.1,29.82,ESE,119,0.0,0.0,69,0.00,,FEW026,0.01,299.00,VWS V14.01,2013-07-24 23:30:00,
2013-07-24 18:32:00,81.4,70.7,29.82,ESE,119,1.0,1.0,70,0.00,,BKN060,0.01,295.00,VWS V14.01,2013-07-24 23:32:00,
2013-07-24 18:35:00,81.4,70.3,29.82,ESE,119,0.0,1.0,69,0.00,,FEW026,0.01,279.00,VWS V14.01,2013-07-24 23:35:00,
2013-07-24 18:37:00,81.5,71.2,29.82,ESE,119,0.0,1.0,71,0.00,,BKN060,0.01,279.00,VWS V14.01,2013-07-24 23:37:00,
2013-07-24 18:40:00,81.6,70.9,29.82,ESE,119,0.0,1.0,70,0.00,,FEW026,0.01,295.00,VWS V14.01,2013-07-24 23:40:00,
2013-07-24 18:42:00,81.6,70.0,29.82,ESE,119,0.0,1.0,68,0.00,,BKN060,0.01,279.00,VWS V14.01,2013-07-24 23:42:00,
2013-07-24 18:45:00,81.6,71.7,29.82,ESE,111,0.0,2.0,72,0.00,,FEW026,0.01,297.00,VWS V14.01,2013-07-24 23:45:00,
2013-07-24 18:47:00,81.7,71.0,29.82,ESE,111,0.0,0.0,70,0.00,,BKN060,0.01,294.00,VWS V14.01,2013-07-24 23:47:00,
2013-07-24 18:50:00,81.6,70.9,29.82,ESE,119,0.0,2.0,70,0.00,,FEW026,0.01,272.00,VWS V14.01,2013-07-24 23:50:00,
2013-07-24 18:52:00,81.6,69.6,29.82,ESE,119,0.0,0.0,67,0.00,,BKN060,0.01,223.00,VWS V14.01,2013-07-24 23:52:00,
2013-07-24 18:55:00,81.6,70.0,29.82,ESE,119,1.0,1.0,68,0.00,,FEW026,0.01,185.00,VWS V14.01,2013-07-24 23:55:00,
2013-07-24 18:57:00,81.5,69.9,29.82,South,169,0.0,2.0,68,0.00,,BKN060,0.01,216.00,VWS V14.01,2013-07-24 23:57:00,
2013-07-24 19:00:00,81.3,69.7,29.82,South,169,0.0,2.0,68,0.00,,FEW026,0.01,107.00,VWS V14.01,2013-07-25 00:00:00,
2013-07-24 19:02:00,81.1,69.1,29.82,ENE,77,0.0,1.0,67,0.00,,FEW050,0.01,83.00,VWS V14.01,2013-07-25 00:02:00,
2013-07-24 19:05:00,81.0,68.6,29.82,ENE,78,0.0,1.0,66,0.00,,FEW026,0.01,95.00,VWS V14.01,2013-07-25 00:05:00,
2013-07-24 19:07:00,80.9,68.5,29.82,ENE,78,0.0,1.0,66,0.00,,FEW050,0.01,76.00,VWS V14.01,2013-07-25 00:07:00,
2013-07-24 19:10:00,80.7,69.6,29.82,ENE,78,0.0,1.0,69,0.00,,FEW026,0.01,69.00,VWS V14.01,2013-07-25 00:10:00,
2013-07-24 19:13:00,80.5,69.4,29.82,ENE,78,0.0,0.0,69,0.00,,FEW050,0.01,63.00,VWS V14.01,2013-07-25 00:13:00,
2013-07-24 19:15:00,80.2,69.5,29.82,ENE,78,0.0,0.0,70,0.00,,FEW026,0.01,54.00,VWS V14.01,2013-07-25 00:15:00,
2013-07-24 19:18:00,79.9,69.2,29.82,ENE,78,0.0,0.0,70,0.00,,FEW050,0.01,51.00,VWS V14.01,2013-07-25 00:18:00,
2013-07-24 19:20:00,79.7,68.6,29.82,ENE,78,0.0,0.0,69,0.00,,FEW026,0.01,53.00,VWS V14.01,2013-07-25 00:20:00,
2013-07-24 19:23:00,79.5,68.9,29.82,ENE,78,0.0,0.0,70,0.00,,FEW050,0.01,37.00,VWS V14.01,2013-07-25 00:23:00,
2013-07-24 19:25:00,79.2,68.6,29.82,ENE,78,0.0,0.0,70,0.00,,FEW026,0.01,49.00,VWS V14.01,2013-07-25 00:25:00,
2013-07-24 19:28:00,78.8,68.6,29.82,ENE,78,0.0,0.0,71,0.00,,FEW050,0.01,51.00,VWS V14.01,2013-07-25 00:28:00,
2013-07-24 19:30:00,78.6,68.0,29.83,ENE,78,0.0,0.0,70,0.00,,FEW026,0.01,49.00,VWS V14.01,2013-07-25 00:30:00,
2013-07-24 19:33:00,78.5,68.3,29.83,ENE,78,0.0,0.0,71,0.00,,FEW050,0.01,47.00,VWS V14.01,2013-07-25 00:33:00,
2013-07-24 19:35:00,78.3,67.7,29.83,ENE,78,0.0,0.0,70,0.00,,FEW026,0.01,35.00,VWS V14.01,2013-07-25 00:35:00,
2013-07-24 19:38:00,78.0,67.8,29.83,ENE,78,0.0,0.0,71,0.00,,FEW050,0.01,51.00,VWS V14.01,2013-07-25 00:38:00,
2013-07-24 19:40:00,77.8,67.7,29.83,ENE,78,0.0,0.0,71,0.00,,FEW026,0.01,35.00,VWS V14.01,2013-07-25 00:40:00,
2013-07-24 19:43:00,77.7,67.1,29.83,ENE,78,0.0,0.0,70,0.00,,FEW050,0.01,35.00,VWS V14.01,2013-07-25 00:43:00,
2013-07-24 19:45:00,77.5,67.8,29.83,ENE,78,0.0,0.0,72,0.00,,FEW026,0.01,30.00,VWS V14.01,2013-07-25 00:45:00,
2013-07-24 19:48:00,77.4,67.7,29.83,ENE,78,0.0,0.0,72,0.00,,FEW050,0.01,26.00,VWS V14.01,2013-07-25 00:48:00,
2013-07-24 19:50:00,77.1,67.8,29.83,ENE,78,0.0,0.0,73,0.00,,FEW026,0.01,26.00,VWS V14.01,2013-07-25 00:50:00,
2013-07-24 19:53:00,76.9,67.6,29.83,ENE,78,0.0,0.0,73,0.00,,FEW050,0.01,21.00,VWS V14.01,2013-07-25 00:53:00,
2013-07-24 19:55:00,76.7,67.4,29.83,ENE,78,0.0,0.0,73,0.00,,FEW026,0.01,19.00,VWS V14.01,2013-07-25 00:55:00,
2013-07-24 19:58:00,76.5,67.2,29.83,ENE,78,0.0,0.0,73,0.00,,FEW050,0.01,18.00,VWS V14.01,2013-07-25 00:58:00,
2013-07-24 20:00:00,76.4,67.5,29.83,ENE,78,0.0,0.0,74,0.00,,FEW026,0.01,18.00,VWS V14.01,2013-07-25 01:00:00,
2013-07-24 20:03:00,76.1,67.2,29.83,ENE,78,0.0,0.0,74,0.00,,CLR,0.01,16.00,VWS V14.01,2013-07-25 01:03:00,
2013-07-24 20:05:00,76.0,67.1,29.83,ENE,78,0.0,0.0,74,0.00,,FEW026,0.01,14.00,VWS V14.01,2013-07-25 01:05:00,
2013-07-24 20:08:00,75.8,66.9,29.83,ENE,78,0.0,0.0,74,0.00,,CLR,0.01,11.00,VWS V14.01,2013-07-25 01:08:00,
2013-07-24 20:10:00,75.7,66.8,29.83,ENE,78,0.0,0.0,74,0.00,,FEW026,0.01,11.00,VWS V14.01,2013-07-25 01:10:00,
2013-07-24 20:14:00,75.5,66.6,29.83,ENE,78,0.0,0.0,74,0.00,,CLR,0.01,7.00,VWS V14.01,2013-07-25 01:14:00,
2013-07-24 20:15:00,75.5,67.0,29.84,ENE,78,0.0,0.0,75,0.00,,FEW026,0.01,7.00,VWS V14.01,2013-07-25 01:15:00,
2013-07-24 20:19:00,75.6,65.9,29.84,ENE,78,0.0,0.0,72,0.00,,CLR,0.01,5.00,VWS V14.01,2013-07-25 01:19:00,
2013-07-24 20:20:00,75.6,65.9,29.84,ENE,78,0.0,0.0,72,0.00,,FEW026,0.01,0.00,VWS V14.01,2013-07-25 01:20:00,
2013-07-24 20:24:00,75.6,65.5,29.84,ENE,78,0.0,0.0,71,0.00,,CLR,0.01,0.00,VWS V14.01,2013-07-25 01:24:00,
2013-07-24 20:25:00,75.6,65.9,29.84,ENE,78,0.0,0.0,72,0.00,,FEW026,0.01,0.00,VWS V14.01,2013-07-25 01:25:00,
2013-07-24 20:29:00,75.5,65.4,29.84,ENE,78,0.0,0.0,71,0.00,,CLR,0.01,0.00,VWS V14.01,2013-07-25 01:29:00,
2013-07-24 20:30:00,75.5,65.8,29.84,ENE,78,0.0,0.0,72,0.00,,FEW026,0.01,0.00,VWS V14.01,2013-07-25 01:30:00,
2013-07-24 20:34:00,75.3,64.8,29.84,ENE,78,0.0,0.0,70,0.00,,CLR,0.01,0.00,VWS V14.01,2013-07-25 01:34:00,
2013-07-24 20:35:00,75.3,65.3,29.84,ENE,78,0.0,0.0,71,0.00,,FEW026,0.01,0.00,VWS V14.01,2013-07-25 01:35:00,
2013-07-24 20:39:00,75.1,65.1,29.84,ENE,78,0.0,0.0,71,0.00,,CLR,0.01,0.00,VWS V14.01,2013-07-25 01:39:00,
2013-07-24 20:40:00,75.1,65.1,29.84,ENE,78,0.0,0.0,71,0.00,,FEW026,0.01,0.00,VWS V14.01,2013-07-25 01:40:00,
2013-07-24 20:44:00,74.9,64.9,29.84,ENE,78,0.0,0.0,71,0.00,,CLR,0.01,0.00,VWS V14.01,2013-07-25 01:44:00,
2013-07-24 20:45:00,74.8,64.8,29.84,ENE,78,0.0,0.0,71,0.00,,FEW026,0.01,0.00,VWS V14.01,2013-07-25 01:45:00,
2013-07-24 20:49:00,74.7,65.1,29.84,ENE,78,0.0,0.0,72,0.00,,CLR,0.01,0.00,VWS V14.01,2013-07-25 01:49:00,
2013-07-24 20:50:00,74.6,65.8,29.84,ENE,78,0.0,0.0,74,0.00,,FEW026,0.01,0.00,VWS V14.01,2013-07-25 01:50:00,
2013-07-24 20:54:00,74.4,64.8,29.84,ENE,78,0.0,0.0,72,0.00,,CLR,0.01,0.00,VWS V14.01,2013-07-25 01:54:00,
2013-07-24 20:55:00,74.4,64.8,29.84,ENE,78,0.0,0.0,72,0.00,,FEW026,0.01,0.00,VWS V14.01,2013-07-25 01:55:00,
2013-07-24 20:59:00,74.2,65.0,29.84,ENE,78,0.0,0.0,73,0.00,,CLR,0.01,0.00,VWS V14.01,2013-07-25 01:59:00,
2013-07-24 21:00:00,74.1,64.9,29.84,ENE,78,0.0,0.0,73,0.00,,FEW026,0.01,0.00,VWS V14.01,2013-07-25 02:00:00,
2013-07-24 21:04:00,73.9,64.7,29.84,ENE,78,0.0,0.0,73,0.00,,CLR,0.01,0.00,VWS V14.01,2013-07-25 02:04:00,
2013-07-24 21:05:00,73.9,65.1,29.84,ENE,78,0.0,0.0,74,0.00,,FEW026,0.01,0.00,VWS V14.01,2013-07-25 02:05:00,
2013-07-24 21:09:00,73.7,64.9,29.84,ENE,78,0.0,0.0,74,0.00,,CLR,0.01,0.00,VWS V14.01,2013-07-25 02:09:00,
2013-07-24 21:10:00,73.7,65.3,29.84,ENE,78,0.0,0.0,75,0.00,,FEW026,0.01,0.00,VWS V14.01,2013-07-25 02:10:00,
2013-07-24 21:14:00,73.5,65.5,29.85,ENE,78,0.0,0.0,76,0.00,,CLR,0.01,0.00,VWS V14.01,2013-07-25 02:14:00,
2013-07-24 21:15:00,73.5,65.5,29.85,ENE,78,0.0,0.0,76,0.00,,FEW026,0.01,0.00,VWS V14.01,2013-07-25 02:15:00,
2013-07-24 21:19:00,73.3,64.9,29.85,ENE,78,0.0,0.0,75,0.00,,CLR,0.01,0.00,VWS V14.01,2013-07-25 02:19:00,
2013-07-24 21:20:00,73.2,64.8,29.85,ENE,78,0.0,0.0,75,0.00,,FEW026,0.01,0.00,VWS V14.01,2013-07-25 02:20:00,
2013-07-24 21:24:00,73.0,64.6,29.85,ENE,78,0.0,0.0,75,0.00,,CLR,0.01,0.00,VWS V14.01,2013-07-25 02:24:00,
2013-07-24 21:25:00,73.0,64.6,29.85,ENE,78,0.0,0.0,75,0.00,,FEW026,0.01,0.00,VWS V14.01,2013-07-25 02:25:00,
2013-07-24 21:29:00,72.8,64.4,29.86,ENE,78,0.0,0.0,75,0.00,,CLR,0.01,0.00,VWS V14.01,2013-07-25 02:29:00,
2013-07-24 21:30:00,72.7,63.9,29.86,ENE,78,0.0,0.0,74,0.00,,FEW026,0.01,0.00,VWS V14.01,2013-07-25 02:30:00,
2013-07-24 21:34:00,72.6,64.2,29.86,ENE,78,0.0,0.0,75,0.00,,CLR,0.01,0.00,VWS V14.01,2013-07-25 02:34:00,
2013-07-24 21:35:00,72.5,64.5,29.86,ENE,78,0.0,0.0,76,0.00,,FEW026,0.01,0.00,VWS V14.01,2013-07-25 02:35:00,
2013-07-24 21:40:00,72.4,64.0,29.86,ENE,78,0.0,0.0,75,0.00,,CLR,0.01,0.00,VWS V14.01,2013-07-25 02:40:00,
2013-07-24 21:45:00,72.2,63.8,29.87,ENE,78,0.0,0.0,75,0.00,,CLR,0.01,0.00,VWS V14.01,2013-07-25 02:45:00,
2013-07-24 21:50:00,72.1,63.8,29.87,ENE,78,0.0,0.0,75,0.00,,CLR,0.01,0.00,VWS V14.01,2013-07-25 02:50:00,
2013-07-24 21:55:00,71.9,63.5,29.87,ENE,78,0.0,0.0,75,0.00,,CLR,0.01,0.00,VWS V14.01,2013-07-25 02:55:00,
2013-07-24 22:00:00,71.7,63.7,29.87,ENE,78,0.0,0.0,76,0.00,,CLR,0.01,0.00,VWS V14.01,2013-07-25 03:00:00,
2013-07-24 22:05:00,71.6,64.0,29.87,ENE,78,0.0,0.0,77,0.00,,CLR,0.01,0.00,VWS V14.01,2013-07-25 03:05:00,
2013-07-24 22:10:00,71.4,64.2,29.87,ENE,78,0.0,0.0,78,0.00,,CLR,0.01,0.00,VWS V14.01,2013-07-25 03:10:00,
2013-07-24 22:15:00,71.2,64.0,29.87,ENE,78,0.0,0.0,78,0.00,,CLR,0.01,0.00,VWS V14.01,2013-07-25 03:15:00,
2013-07-24 22:20:00,71.0,63.8,29.87,ENE,78,0.0,0.0,78,0.00,,CLR,0.01,0.00,VWS V14.01,2013-07-25 03:20:00,
2013-07-24 22:25:00,70.8,63.2,29.87,ENE,78,0.0,0.0,77,0.00,,CLR,0.01,0.00,VWS V14.01,2013-07-25 03:25:00,
2013-07-24 22:30:00,70.7,63.1,29.87,ENE,78,0.0,0.0,77,0.00,,CLR,0.01,0.00,VWS V14.01,2013-07-25 03:30:00,
2013-07-24 22:35:00,70.5,63.7,29.87,ENE,78,0.0,0.0,79,0.00,,FEW026,0.01,0.00,VWS V14.01,2013-07-25 03:35:00,
2013-07-24 22:37:00,70.4,63.9,29.87,ENE,78,0.0,0.0,80,0.00,,CLR,0.01,0.00,VWS V14.01,2013-07-25 03:37:00,
2013-07-24 22:40:00,70.4,64.3,29.87,ENE,78,0.0,0.0,81,0.00,,FEW026,0.01,0.00,VWS V14.01,2013-07-25 03:40:00,
2013-07-24 22:42:00,70.3,64.2,29.87,ENE,78,0.0,0.0,81,0.00,,CLR,0.01,0.00,VWS V14.01,2013-07-25 03:42:00,
2013-07-24 22:45:00,70.2,64.1,29.87,ENE,78,0.0,0.0,81,0.00,,FEW026,0.01,0.00,VWS V14.01,2013-07-25 03:45:00,
2013-07-24 22:47:00,70.2,64.1,29.87,ENE,78,0.0,0.0,81,0.00,,CLR,0.01,0.00,VWS V14.01,2013-07-25 03:47:00,
2013-07-24 22:50:00,70.0,63.9,29.87,ENE,78,0.0,0.0,81,0.00,,FEW026,0.01,0.00,VWS V14.01,2013-07-25 03:50:00,
2013-07-24 22:52:00,69.9,63.8,29.87,ENE,78,0.0,0.0,81,0.00,,CLR,0.01,0.00,VWS V14.01,2013-07-25 03:52:00,
2013-07-24 22:55:00,69.8,63.7,29.87,ENE,78,0.0,0.0,81,0.00,,FEW026,0.01,0.00,VWS V14.01,2013-07-25 03:55:00,
2013-07-24 22:58:00,69.7,63.6,29.87,ENE,78,0.0,0.0,81,0.00,,CLR,0.01,0.00,VWS V14.01,2013-07-25 03:58:00,
2013-07-24 23:00:00,69.6,63.9,29.88,ENE,78,0.0,0.0,82,0.00,,FEW026,0.01,0.00,VWS V14.01,2013-07-25 04:00:00,
2013-07-24 23:01:00,69.6,63.9,29.88,ENE,78,0.0,0.0,82,0.00,,CLR,0.01,0.00,VWS V14.01,2013-07-25 04:01:00,
2013-07-24 23:02:00,69.6,63.9,29.88,ENE,78,0.0,0.0,82,0.00,,CLR,0.01,0.00,VWS V14.01,2013-07-25 04:02:00,
2013-07-24 23:03:00,69.5,63.8,29.88,ENE,78,0.0,0.0,82,0.00,,CLR,0.01,0.00,VWS V14.01,2013-07-25 04:03:00,
2013-07-24 23:05:00,69.4,63.7,29.88,ENE,78,0.0,0.0,82,0.00,,FEW026,0.01,0.00,VWS V14.01,2013-07-25 04:05:00,
2013-07-24 23:07:00,69.4,63.7,29.88,ENE,78,0.0,0.0,82,0.00,,CLR,0.01,0.00,VWS V14.01,2013-07-25 04:07:00,
2013-07-24 23:10:00,69.2,63.5,29.88,ENE,78,0.0,0.0,82,0.00,,FEW026,0.01,0.00,VWS V14.01,2013-07-25 04:10:00,
2013-07-24 23:12:00,69.1,63.4,29.88,ENE,78,0.0,0.0,82,0.00,,CLR,0.01,0.00,VWS V14.01,2013-07-25 04:12:00,
2013-07-24 23:14:00,69.0,63.3,29.88,ENE,78,0.0,0.0,82,0.00,,CLR,0.01,0.00,VWS V14.01,2013-07-25 04:14:00,
2013-07-24 23:15:00,69.0,63.3,29.88,ENE,78,0.0,0.0,82,0.00,,FEW026,0.01,0.00,VWS V14.01,2013-07-25 04:15:00,
2013-07-24 23:19:00,68.9,63.2,29.88,ENE,78,0.0,0.0,82,0.00,,CLR,0.01,0.00,VWS V14.01,2013-07-25 04:19:00,
2013-07-24 23:20:00,68.8,63.1,29.88,ENE,78,0.0,0.0,82,0.00,,FEW026,0.01,0.00,VWS V14.01,2013-07-25 04:20:00,
2013-07-24 23:24:00,68.6,63.2,29.88,ENE,78,0.0,0.0,83,0.00,,CLR,0.01,0.00,VWS V14.01,2013-07-25 04:24:00,
2013-07-24 23:25:00,68.6,63.2,29.88,ENE,78,0.0,0.0,83,0.00,,FEW026,0.01,0.00,VWS V14.01,2013-07-25 04:25:00,
2013-07-24 23:29:00,68.4,63.0,29.88,ENE,78,0.0,0.0,83,0.00,,CLR,0.01,0.00,VWS V14.01,2013-07-25 04:29:00,
2013-07-24 23:30:00,68.3,62.9,29.89,ENE,78,0.0,0.0,83,0.00,,FEW026,0.01,0.00,VWS V14.01,2013-07-25 04:30:00,
2013-07-24 23:34:00,68.1,62.8,29.89,ENE,78,0.0,0.0,83,0.00,,CLR,0.01,0.00,VWS V14.01,2013-07-25 04:34:00,
2013-07-24 23:35:00,68.1,62.8,29.89,ENE,78,0.0,0.0,83,0.00,,FEW026,0.01,0.00,VWS V14.01,2013-07-25 04:35:00,
2013-07-24 23:40:00,68.0,62.7,29.89,ENE,78,0.0,0.0,83,0.00,,CLR,0.01,0.00,VWS V14.01,2013-07-25 04:40:00,
2013-07-24 23:45:00,67.8,62.5,29.89,ENE,78,0.0,0.0,83,0.00,,CLR,0.01,0.00,VWS V14.01,2013-07-25 04:45:00,
2013-07-24 23:50:00,67.7,62.7,29.89,ENE,78,0.0,0.0,84,0.00,,CLR,0.01,0.00,VWS V14.01,2013-07-25 04:50:00,
2013-07-24 23:55:00,67.5,62.8,29.89,ENE,78,0.0,0.0,85,0.00,,CLR,0.01,0.00,VWS V14.01,2013-07-25 04:55:00,